1487862000.31,5761,11.19,72260.5,-2.83,-4.29,-4.17,0,*61
1487862001.5,5762,11.19,72256.8,-2.83,-4.29,-4.25,0,*63
1487862002.69,5763,11.13,72198.5,-2.83,-4.37,-4.29,0,*61
1487862003.88,5764,11.13,72120.8,-2.83,-4.37,-4.37,0,*69
1487862005.06,5765,11.19,72096.5,-2.83,-4.49,-4.37,0,*61
1487862006.26,5766,11.19,72130.3,-2.83,-4.29,-4.29,0,*6B
1487862007.44,5767,11.19,72144.0,-2.83,-4.17,-4.17,0,*6A
1487862008.66,5768,11.13,72150.8,-2.85,-4.29,-4.17,0,*6E
1487862009.85,5769,11.19,72166.8,-2.83,-4.17,-4.05,0,*67
1487862011.03,5770,11.19,72182.5,-2.83,-4.13,-4.05,0,*6B
1487862012.22,5771,11.19,72190.5,-2.83,-4.13,-4.13,0,*6D
1487862013.42,5772,11.19,72220.3,-2.83,-4.17,-4.25,0,*6F
1487862014.61,5773,11.13,72218.0,-2.83,-4.17,-4.25,0,*6E
1487862015.8,5774,11.13,72220.3,-2.83,-4.25,-4.25,0,*68
1487862016.99,5775,11.13,72192.5,-2.83,-4.37,-4.37,0,*69
1487862018.18,5776,11.19,72188.3,-2.83,-4.37,-4.37,0,*6A
1487862019.39,5777,11.19,72180.0,-2.85,-4.37,-4.37,0,*6D
1487862020.58,5778,11.19,72196.0,-2.83,-4.49,-4.53,0,*6F
1487862021.82,5779,11.19,72162.0,-2.83,-4.81,-4.81,0,*65
1487862023.04,5780,11.13,72190.0,-2.83,-5.35,-5.27,0,*60
1487862024.25,5781,11.19,72184.8,-2.83,-6.05,-5.31,0,*66
1487862025.47,5782,11.19,72196.8,-2.81,-6.85,-5.51,0,*69
1487862026.69,5783,11.13,72216.0,-2.83,-7.57,-5.47,0,*63
1487862027.94,5784,11.19,72234.3,-2.83,-7.57,-5.03,0,*64
1487862029.16,5785,11.13,72236.5,-2.83,-7.31,-4.65,0,*64
1487862030.35,5786,11.19,72226.3,-2.83,-6.73,-4.53,0,*65
1487862031.54,5787,11.19,72236.0,-2.83,-6.09,-4.41,0,*6A
1487862032.74,5788,11.19,72178.0,-2.83,-5.55,-4.37,0,*6E
1487862033.96,5789,11.13,72198.0,-2.83,-5.15,-4.29,0,*64
1487862035.15,5790,11.13,72214.0,-2.83,-4.65,-4.25,0,*66
1487862036.36,5791,11.19,72198.5,-2.81,-4.49,-4.25,0,*6B
1487862037.54,5792,11.19,72188.8,-2.83,-4.49,-4.25,0,*6A
1487862038.74,5793,11.19,72220.5,-2.83,-4.57,-4.25,0,*64
1487862039.92,5794,11.19,72216.0,-2.83,-4.41,-4.17,0,*65
1487862041.11,5795,11.19,72228.5,-2.83,-4.49,-4.25,0,*6D
1487862042.3,5796,11.13,72220.3,-2.83,-4.41,-4.29,0,*6A
1487862043.49,5797,11.19,72226.8,-2.83,-4.41,-4.25,0,*67
1487862044.68,5798,11.19,72248.3,-2.83,-4.41,-4.37,0,*6B
1487862045.9,5799,11.13,72250.8,-2.85,-4.37,-4.25,0,*6E
1487862047.09,5800,11.19,72248.8,-2.83,-4.29,-4.25,0,*68
1487862048.28,5801,11.19,72242.0,-2.83,-4.37,-4.29,0,*6A
1487862049.49,5802,11.19,72238.5,-2.81,-4.25,-4.33,0,*63
1487862050.68,5803,11.13,72218.5,-2.83,-4.41,-4.37,0,*66
1487862051.87,5804,11.19,72226.3,-2.83,-4.41,-4.37,0,*61
1487862053.06,5805,11.13,72224.8,-2.83,-4.41,-4.29,0,*6F
1487862054.25,5806,11.19,72232.5,-2.83,-4.41,-4.29,0,*6C
1487862055.44,5807,11.19,72230.0,-2.83,-4.49,-4.29,0,*65
1487862056.65,5808,11.19,72232.5,-2.81,-4.37,-4.21,0,*69
1487862057.84,5809,11.19,72230.3,-2.79,-4.37,-4.13,0,*6E
1487862059.06,5810,11.19,72224.3,-2.81,-4.37,-4.21,0,*60
1487862060.27,5811,11.13,72226.5,-2.81,-4.37,-4.21,0,*61
1487862061.46,5812,11.13,72224.3,-2.79,-4.33,-4.17,0,*64
1487862062.68,5813,11.19,72234.0,-2.81,-4.25,-4.21,0,*60
1487862063.9,5814,11.13,72236.8,-2.81,-4.33,-4.21,0,*60
1487862065.12,5815,11.19,72258.0,-2.81,-4.25,-4.13,0,*67
1487862066.32,5816,11.13,72270.8,-2.79,-4.25,-4.09,0,*68
1487862067.51,5817,11.19,72272.5,-2.79,-4.21,-4.17,0,*62
1487862068.73,5818,11.19,72272.5,-2.81,-4.33,-4.21,0,*6C
1487862069.93,5819,11.13,72270.5,-2.79,-4.21,-4.09,0,*63
1487862071.12,5820,11.13,72278.3,-2.79,-4.29,-4.17,0,*6E
1487862072.34,5821,11.19,72300.5,-2.81,-4.33,-4.25,0,*62
1487862073.56,5822,11.19,72294.0,-2.81,-4.21,-4.21,0,*66
1487862074.78,5823,11.19,72298.5,-2.81,-4.17,-4.05,0,*64
1487862075.97,5824,11.19,72296.5,-2.79,-4.17,-4.09,0,*68
1487862077.15,5825,11.13,72296.3,-2.79,-4.29,-4.17,0,*6B
1487862078.35,5826,11.19,72292.8,-2.79,-4.29,-4.33,0,*6E
1487862079.54,5827,11.19,72296.0,-2.79,-4.45,-4.61,0,*62
1487862080.76,5828,11.19,72272.8,-2.81,-4.85,-4.99,0,*61
1487862081.98,5829,11.19,72268.0,-2.79,-5.27,-5.35,0,*69
1487862083.18,5830,11.13,72264.8,-2.79,-5.97,-5.51,0,*68
1487862084.4,5831,11.13,72234.3,-2.79,-6.43,-5.61,0,*60
1487862085.61,5832,11.13,72248.0,-2.81,-6.73,-5.47,0,*63
1487862086.8,5833,11.13,72264.0,-2.79,-6.69,-5.39,0,*67
1487862088.03,5834,11.19,72272.5,-2.79,-6.81,-5.23,0,*6D
1487862089.27,5835,11.13,72254.3,-2.79,-6.63,-5.07,0,*66
1487862090.5,5836,11.13,72262.0,-2.79,-6.31,-4.85,0,*69
1487862091.72,5837,11.13,72282.0,-2.79,-6.31,-4.93,0,*6F
1487862092.95,5838,11.13,72290.3,-2.79,-6.27,-4.93,0,*67
1487862094.17,5839,11.13,72280.0,-2.79,-6.13,-4.85,0,*66
1487862095.4,5840,11.19,72290.3,-2.79,-6.13,-4.85,0,*68
1487862096.62,5841,11.19,72268.8,-2.79,-6.01,-4.73,0,*63
1487862097.84,5842,11.13,72220.3,-2.79,-5.89,-4.61,0,*60
1487862099.06,5843,11.13,72256.5,-2.79,-5.65,-4.57,0,*66
1487862100.28,5844,11.13,72228.3,-2.77,-5.51,-4.49,0,*67
1487862101.52,5845,11.13,72222.8,-2.77,-5.19,-4.49,0,*6A
1487862102.76,5846,11.19,72232.5,-2.77,-5.11,-4.57,0,*6E
1487862104.03,5847,11.13,72230.0,-2.77,-5.07,-4.73,0,*6E
1487862105.3,5848,11.19,72224.0,-2.77,-5.23,-4.85,0,*6E
1487862106.57,5849,11.13,72224.0,-2.77,-5.27,-5.07,0,*60
1487862107.85,5850,11.13,72226.0,-2.77,-5.65,-5.23,0,*68
1487862109.06,5851,11.13,72238.5,-2.77,-6.01,-5.39,0,*63
1487862110.31,5852,11.13,72240.3,-2.75,-6.27,-5.43,0,*6B
1487862111.53,5853,11.19,72204.5,-2.77,-6.51,-5.47,0,*6D
1487862112.77,5854,11.13,72190.8,-2.77,-7.11,-5.77,0,*6C
1487862114.04,5855,11.19,72186.8,-2.77,-7.91,-5.85,0,*68
1487862115.31,5856,11.13,72192.0,-2.77,-8.11,-5.65,0,*62
1487862116.54,5857,11.13,72208.5,-2.79,-8.03,-5.77,0,*6D
1487862117.78,5858,11.13,72170.8,-2.77,-8.17,-5.65,0,*6A
1487862119.0,5859,11.13,72206.0,-2.79,-7.91,-5.47,0,*64
1487862120.24,5860,11.13,72180.0,-2.77,-7.49,-5.19,0,*6E
1487862121.49,5861,11.13,72202.5,-2.77,-6.77,-5.19,0,*63
1487862122.74,5862,11.13,72216.5,-2.77,-6.43,-5.07,0,*68
1487862124.01,5863,11.13,72210.3,-2.77,-6.27,-5.07,0,*6B
1487862125.26,5864,11.13,72230.5,-2.75,-6.09,-4.89,0,*65
1487862126.53,5865,11.13,72200.5,-2.77,-5.89,-4.85,0,*61
1487862127.8,5866,11.13,72190.8,-2.77,-5.77,-5.07,0,*68
1487862129.06,5867,11.13,72186.8,-2.77,-6.51,-5.23,0,*68
1487862130.31,5868,11.13,72174.5,-2.77,-7.23,-5.27,0,*67
1487862131.55,5869,11.13,72202.8,-2.77,-7.49,-5.19,0,*67
1487862132.81,5870,11.13,72194.5,-2.77,-7.31,-4.93,0,*63
1487862134.05,5871,11.13,72188.0,-2.75,-7.27,-4.99,0,*6D
1487862135.27,5872,11.13,72206.8,-2.77,-7.23,-4.99,0,*68
1487862136.53,5873,11.13,72198.5,-2.77,-7.05,-4.93,0,*67
1487862137.78,5874,11.13,72208.0,-2.75,-6.73,-4.81,0,*61
1487862139.02,5875,11.13,72204.8,-2.75,-6.59,-4.77,0,*61
1487862140.27,5876,11.13,72196.0,-2.75,-6.47,-4.89,0,*6C
1487862141.53,5877,11.13,72178.8,-2.75,-6.35,-4.89,0,*68
1487862142.77,5878,11.13,72190.8,-2.75,-5.97,-4.77,0,*6D
1487862144.05,5879,11.13,72164.8,-2.75,-5.85,-4.69,0,*60
1487862145.3,5880,11.13,72202.0,-2.75,-5.93,-4.57,0,*6C
1487862146.57,5881,11.13,72174.3,-2.75,-5.73,-4.69,0,*6E
1487862147.84,5882,11.13,72194.8,-2.75,-5.61,-4.69,0,*6E
1487862149.12,5883,11.13,72178.8,-2.75,-5.69,-4.69,0,*67
1487862150.38,5884,11.13,72172.5,-2.77,-5.61,-4.69,0,*6A
1487862151.65,5885,11.13,72200.0,-2.75,-5.61,-4.69,0,*69
1487862152.87,5886,11.13,72192.3,-2.75,-5.43,-4.57,0,*67
1487862154.15,5887,11.13,72226.3,-2.75,-5.19,-4.69,0,*64
1487862155.4,5888,11.19,72156.8,-2.75,-5.19,-4.65,0,*67
1487862156.65,5889,11.13,72224.5,-2.75,-5.55,-4.81,0,*64
1487862157.92,5890,11.13,72246.5,-2.75,-5.73,-4.77,0,*61
1487862159.13,5891,11.13,72246.8,-2.73,-6.05,-4.89,0,*65
1487862160.38,5892,11.13,72184.8,-2.73,-6.23,-4.81,0,*6A
1487862161.59,5893,11.13,72190.3,-2.73,-6.23,-4.65,0,*61
1487862162.81,5894,11.19,72202.3,-2.73,-5.93,-4.41,0,*68
1487862164.01,5895,11.13,72186.5,-2.73,-5.55,-4.29,0,*6D
1487862165.23,5896,11.13,72126.8,-2.73,-5.07,-4.25,0,*65
1487862166.43,5897,11.19,72158.5,-2.69,-4.53,-4.13,0,*6A
1487862167.62,5898,11.13,72194.3,-2.73,-4.41,-4.05,0,*6A
1487862168.83,5899,11.19,72190.0,-2.73,-4.37,-4.01,0,*6E
1487862170.03,5900,11.13,72202.3,-2.69,-4.25,-4.09,0,*6F
1487862171.22,5901,11.13,72216.0,-2.73,-4.29,-4.05,0,*65
1487862172.42,5902,11.13,72236.0,-2.69,-4.25,-3.95,0,*6F
1487862173.63,5903,11.13,72260.8,-2.73,-4.29,-4.01,0,*63
1487862174.85,5904,11.13,72182.8,-2.73,-4.25,-4.01,0,*68
1487862176.05,5905,11.19,72170.0,-2.73,-4.25,-4.13,0,*6A
1487862177.27,5906,11.19,72196.8,-2.69,-4.13,-4.01,0,*64
1487862178.47,5907,11.13,72176.5,-2.69,-4.09,-3.95,0,*64
1487862179.66,5908,11.13,72190.3,-2.73,-4.17,-4.13,0,*66
1487862180.86,5909,11.19,72186.3,-2.73,-4.25,-4.25,0,*63
1487862182.06,5910,11.19,72212.3,-2.69,-4.13,-4.13,0,*60
1487862183.24,5911,11.13,72210.3,-2.73,-4.17,-4.17,0,*6A
1487862184.44,5912,11.13,72210.0,-2.73,-4.25,-4.25,0,*69
1487862185.63,5913,11.13,72210.3,-2.73,-4.29,-4.17,0,*65
1487862186.82,5914,11.13,72194.0,-2.73,-4.29,-4.25,0,*63
1487862188.01,5915,11.13,72194.3,-2.73,-4.29,-4.17,0,*63
1487862189.2,5916,11.19,72196.0,-2.73,-4.25,-4.17,0,*6C
1487862190.39,5917,11.19,72198.3,-2.73,-4.25,-4.13,0,*69
1487862191.59,5918,11.13,72236.8,-2.73,-4.17,-4.13,0,*67
1487862192.78,5919,11.13,72238.3,-2.73,-4.25,-4.05,0,*60
1487862193.97,5920,11.13,72270.3,-2.73,-4.17,-4.05,0,*6B
1487862195.16,5921,11.19,72222.3,-2.73,-4.13,-4.13,0,*69
1487862196.38,5922,11.13,72234.0,-2.69,-4.09,-4.01,0,*69
1487862197.61,5923,11.13,72220.8,-2.69,-4.09,-4.01,0,*68
1487862198.8,5924,11.19,72234.3,-2.73,-4.13,-4.05,0,*6B
1487862199.99,5925,11.13,72218.0,-2.69,-4.13,-4.09,0,*6D
1487862201.19,5926,11.19,72208.5,-2.73,-4.25,-4.25,0,*6E
1487862202.4,5927,11.13,72226.0,-2.69,-4.33,-4.21,0,*67
1487862203.59,5928,11.19,72236.8,-2.73,-4.41,-4.37,0,*61
1487862204.79,5929,11.13,72232.3,-2.69,-4.41,-4.25,0,*68
1487862205.99,5930,11.13,72224.0,-2.69,-4.49,-4.21,0,*6C
1487862207.18,5931,11.13,72194.3,-2.73,-4.49,-4.21,0,*66
1487862208.37,5932,11.19,72186.8,-2.73,-4.65,-4.25,0,*6F
1487862209.57,5933,11.19,72204.0,-2.69,-4.65,-4.21,0,*61
1487862210.77,5934,11.19,72210.3,-2.73,-4.57,-4.25,0,*68
1487862211.96,5935,11.13,72202.8,-2.69,-4.37,-4.09,0,*6A
1487862213.14,5936,11.13,72232.5,-2.73,-4.45,-4.13,0,*6C
1487862214.34,5937,11.19,72236.3,-2.73,-4.29,-3.91,0,*6A
1487862215.53,5938,11.19,72266.3,-2.73,-4.25,-3.91,0,*69
1487862216.73,5939,11.13,72280.8,-2.69,-4.21,-3.95,0,*63
1487862217.92,5940,11.19,72280.5,-2.73,-4.05,-3.87,0,*63
1487862219.12,5941,11.13,72274.8,-2.69,-4.09,-3.83,0,*61
1487862220.32,5942,11.13,72284.8,-2.69,-3.95,-3.83,0,*60
1487862221.51,5943,11.19,72292.8,-2.73,-4.05,-3.91,0,*67
1487862222.74,5944,11.13,72286.0,-2.69,-4.01,-3.87,0,*68
1487862223.93,5945,11.13,72262.0,-2.69,-4.09,-3.87,0,*61
1487862225.13,5946,11.13,72256.5,-2.69,-3.95,-3.87,0,*60
1487862226.34,5947,11.13,72246.5,-2.69,-3.83,-3.75,0,*6B
1487862227.55,5948,11.13,72230.5,-2.67,-3.87,-3.83,0,*67
1487862228.75,5949,11.13,72244.5,-2.69,-3.87,-3.87,0,*6C
1487862229.97,5950,11.13,72216.5,-2.73,-4.01,-3.91,0,*61
1487862231.17,5951,11.13,72224.8,-2.69,-3.87,-3.95,0,*66
1487862232.37,5952,11.13,72250.5,-2.69,-3.95,-3.95,0,*66
1487862233.57,5953,11.19,72256.0,-2.69,-3.95,-3.95,0,*67
1487862234.77,5954,11.13,72238.8,-2.69,-3.95,-3.87,0,*63
1487862236.0,5955,11.13,72238.8,-2.69,-4.09,-4.01,0,*69
1487862237.22,5956,11.13,72228.8,-2.69,-4.09,-4.01,0,*6A
1487862238.47,5957,11.13,72228.0,-2.69,-4.01,-4.01,0,*63
1487862239.67,5958,11.19,72230.8,-2.69,-4.13,-3.95,0,*65
1487862240.89,5959,11.13,72198.0,-2.69,-4.13,-4.01,0,*6E
1487862242.08,5960,11.19,72218.0,-2.69,-4.09,-3.87,0,*66
1487862243.31,5961,11.13,72232.5,-2.69,-4.01,-3.87,0,*6F
1487862244.5,5962,11.13,72288.0,-2.69,-3.87,-3.87,0,*65
1487862245.73,5963,11.13,72300.8,-2.67,-3.83,-3.83,0,*6A
1487862246.95,5964,11.13,72306.5,-2.67,-3.95,-3.95,0,*6D
1487862248.18,5965,11.13,72302.8,-2.67,-4.21,-4.25,0,*68
1487862249.4,5966,11.13,72282.5,-2.67,-4.25,-4.21,0,*6B
1487862250.62,5967,11.13,72208.5,-2.67,-4.53,-4.25,0,*6F
1487862251.83,5968,11.13,72192.5,-2.67,-4.53,-4.37,0,*63
1487862253.03,5969,11.13,72192.5,-2.65,-4.61,-4.57,0,*67
1487862254.24,5970,11.13,72150.0,-2.65,-4.85,-4.61,0,*60
1487862255.46,5971,11.13,72156.5,-2.65,-5.07,-4.61,0,*6A
1487862256.68,5972,11.13,72206.0,-2.65,-5.27,-4.57,0,*6E
1487862257.92,5973,11.13,72224.0,-2.67,-5.27,-4.49,0,*62
1487862259.16,5974,11.13,72244.0,-2.67,-5.11,-4.37,0,*69
1487862260.35,5975,11.13,72246.5,-2.65,-4.99,-4.21,0,*6C
1487862261.59,5976,11.13,72252.5,-2.67,-4.89,-4.09,0,*66
1487862262.82,5977,11.13,72232.8,-2.63,-4.69,-3.95,0,*6F
1487862264.01,5978,11.13,72200.5,-2.65,-4.57,-3.95,0,*6B
1487862265.21,5979,11.13,72220.5,-2.65,-4.33,-3.91,0,*6C
1487862266.41,5980,11.13,72240.0,-2.65,-4.21,-3.79,0,*6F
1487862267.62,5981,11.13,72254.8,-2.63,-4.17,-3.83,0,*68
1487862268.84,5982,11.13,72238.8,-2.63,-4.17,-3.91,0,*68
1487862270.06,5983,11.13,72250.5,-2.63,-4.09,-3.95,0,*62
1487862271.28,5984,11.13,72250.0,-2.67,-3.95,-3.87,0,*60
1487862272.5,5985,11.13,72262.0,-2.63,-3.91,-3.79,0,*60
1487862273.74,5986,11.13,72262.5,-2.63,-3.95,-3.71,0,*6F
1487862274.99,5987,11.13,72270.3,-2.63,-3.83,-3.71,0,*69
1487862276.21,5988,11.13,72246.3,-2.63,-4.09,-3.91,0,*6D
1487862277.42,5989,11.13,72230.5,-2.63,-4.09,-3.83,0,*6F
1487862278.64,5990,11.13,72194.3,-2.63,-3.95,-3.83,0,*65
1487862279.87,5991,11.13,72208.3,-2.61,-4.01,-3.79,0,*69
1487862281.06,5992,11.13,72188.5,-2.61,-4.05,-3.91,0,*68
1487862282.27,5993,11.13,72146.3,-2.63,-4.17,-4.09,0,*6E
1487862283.46,5994,11.13,72246.5,-2.61,-4.17,-4.05,0,*67
1487862284.66,5995,11.13,72268.5,-2.61,-4.13,-3.91,0,*68
1487862285.84,5996,11.13,72274.0,-2.61,-4.05,-3.87,0,*6B
1487862287.04,5997,11.13,72304.3,-2.61,-3.91,-3.79,0,*61
1487862288.27,5998,11.13,72280.5,-2.63,-3.95,-3.83,0,*6D
1487862289.47,5999,11.13,72240.0,-2.61,-3.91,-3.79,0,*6F
1487862290.68,6000,11.13,72258.0,-2.61,-3.87,-3.67,0,*6D
1487862291.87,6001,11.19,72278.0,-2.61,-3.87,-3.75,0,*6F
1487862293.09,6002,11.13,72280.5,-2.61,-3.83,-3.71,0,*6C
1487862294.29,6003,11.13,72278.0,-2.61,-3.79,-3.75,0,*6C
1487862295.52,6004,11.13,72272.8,-2.63,-3.91,-3.79,0,*63
1487862296.73,6005,11.13,72284.3,-2.61,-3.79,-3.67,0,*69
1487862297.98,6006,11.13,72282.5,-2.63,-3.79,-3.71,0,*6F
1487862299.18,6007,11.19,72300.3,-2.61,-3.79,-3.75,0,*68
1487862300.37,6008,11.13,72292.0,-2.61,-3.87,-3.79,0,*6A
1487862301.57,6009,11.13,72294.5,-2.61,-3.75,-3.75,0,*6A
1487862302.77,6010,11.13,72286.3,-2.61,-3.79,-3.87,0,*63
1487862303.97,6011,11.13,72286.0,-2.61,-3.75,-3.75,0,*63
1487862305.2,6012,11.13,72284.5,-2.61,-3.67,-3.63,0,*64
1487862306.43,6013,11.13,72290.5,-2.61,-3.67,-3.63,0,*65
1487862307.63,6014,11.13,72284.3,-2.61,-3.79,-3.75,0,*6A
1487862308.86,6015,11.13,72284.8,-2.63,-3.83,-3.79,0,*60
1487862310.09,6016,11.13,72260.5,-2.61,-3.67,-3.63,0,*60
1487862311.29,6017,11.13,72222.5,-2.61,-3.75,-3.75,0,*65
1487862312.49,6018,11.13,72236.3,-2.61,-3.91,-3.87,0,*6D
1487862313.69,6019,11.13,72238.5,-2.61,-3.91,-3.79,0,*6D
1487862314.91,6020,11.13,72262.3,-2.59,-3.87,-3.87,0,*6A
1487862316.14,6021,11.13,72272.3,-2.59,-3.79,-3.79,0,*6B
1487862317.35,6022,11.13,72268.0,-2.59,-3.87,-3.87,0,*68
1487862318.57,6023,11.13,72258.5,-2.59,-3.87,-3.87,0,*69
1487862319.8,6024,11.13,72244.8,-2.59,-3.91,-3.91,0,*6E
1487862321.0,6025,11.13,72240.8,-2.61,-3.91,-3.91,0,*64
1487862322.24,6026,11.13,72248.5,-2.59,-4.01,-4.05,0,*68
1487862323.46,6027,11.13,72266.0,-2.57,-3.95,-4.01,0,*69
1487862324.68,6028,11.13,72302.3,-2.57,-4.01,-4.13,0,*6F
1487862325.87,6029,11.13,72258.8,-2.61,-4.17,-4.33,0,*6E
1487862327.08,6030,11.13,72224.3,-2.59,-4.45,-4.53,0,*6C
1487862328.27,6031,11.13,72238.0,-2.57,-4.53,-4.61,0,*65
1487862329.53,6032,11.13,72256.3,-2.59,-4.77,-4.81,0,*60
1487862330.8,6033,11.13,72260.0,-2.59,-5.07,-4.93,0,*64
1487862332.03,6034,11.13,72260.5,-2.57,-5.55,-5.07,0,*66
1487862333.3,6035,11.13,72252.3,-2.59,-5.81,-5.07,0,*60
1487862334.52,6036,11.13,72270.3,-2.57,-5.69,-4.99,0,*6D
1487862335.73,6037,11.13,72248.0,-2.57,-5.65,-4.99,0,*60
1487862336.97,6038,11.13,72272.8,-2.59,-5.69,-5.43,0,*6B
1487862338.16,6039,11.13,72256.0,-2.57,-5.97,-5.55,0,*62
1487862339.39,6040,11.13,72252.8,-2.59,-6.51,-5.47,0,*68
1487862340.6,6041,11.13,72218.8,-2.59,-6.73,-5.47,0,*69
1487862341.82,6042,11.13,72236.0,-2.57,-6.73,-5.27,0,*62
1487862343.07,6043,11.13,72228.0,-2.59,-6.89,-5.19,0,*65
1487862344.32,6044,11.13,72240.5,-2.59,-6.81,-5.03,0,*61
1487862345.57,6045,11.13,72238.5,-2.59,-6.59,-5.03,0,*65
1487862346.79,6046,11.13,72232.0,-2.57,-6.35,-4.89,0,*61
1487862348.04,6047,11.13,72232.5,-2.59,-6.01,-4.69,0,*67
1487862349.27,6048,11.13,72222.0,-2.57,-5.69,-4.73,0,*60
1487862350.54,6049,11.13,72250.3,-2.55,-5.61,-4.85,0,*62
1487862351.79,6050,11.13,72244.3,-2.57,-5.65,-5.03,0,*63
1487862353.06,6051,11.13,72256.3,-2.59,-5.69,-5.07,0,*64
1487862354.31,6052,11.13,72248.0,-2.57,-5.81,-5.03,0,*6B
1487862355.52,6053,11.13,72260.8,-2.57,-5.89,-4.99,0,*60
1487862356.74,6054,11.13,72258.5,-2.57,-5.69,-4.65,0,*6A
1487862358.0,6055,11.13,72246.8,-2.59,-5.73,-4.77,0,*6D
1487862359.19,6056,11.13,72268.0,-2.57,-5.55,-4.41,0,*61
1487862360.38,6057,11.13,72242.5,-2.57,-5.39,-4.25,0,*68
1487862361.6,6058,11.13,72244.0,-2.57,-5.03,-4.13,0,*6B
1487862362.83,6059,11.13,72244.8,-2.59,-4.77,-4.05,0,*61
1487862364.07,6060,11.13,72272.3,-2.59,-4.53,-4.01,0,*69
1487862365.28,6061,11.13,72252.8,-2.57,-4.29,-4.01,0,*6B
1487862366.49,6062,11.13,72264.8,-2.57,-4.13,-4.01,0,*61
1487862367.68,6063,11.13,72254.0,-2.57,-4.09,-3.91,0,*65
1487862368.9,6064,11.13,72236.8,-2.57,-4.01,-3.95,0,*6E
1487862370.11,6065,11.13,72234.5,-2.57,-4.01,-3.95,0,*6F
1487862371.36,6066,11.13,72242.0,-2.59,-4.05,-4.01,0,*6C
1487862372.57,6067,11.13,72208.3,-2.57,-4.01,-3.95,0,*6D
1487862373.78,6068,11.13,72216.8,-2.57,-4.09,-4.01,0,*60
1487862374.97,6069,11.13,72240.0,-2.57,-4.09,-4.09,0,*69
1487862376.16,6070,11.13,72216.8,-2.57,-4.13,-4.09,0,*6A
1487862377.34,6071,11.13,72254.0,-2.57,-4.13,-4.09,0,*6B
1487862378.57,6072,11.13,72264.0,-2.59,-4.25,-4.13,0,*68
1487862379.76,6073,11.13,72262.3,-2.57,-4.21,-4.13,0,*63
1487862380.98,6074,11.13,72280.5,-2.59,-4.25,-4.17,0,*6A
1487862382.17,6075,11.13,72288.3,-2.57,-4.29,-4.13,0,*6D
1487862383.35,6076,11.13,72276.8,-2.57,-4.29,-4.09,0,*65
1487862384.55,6077,11.13,72266.3,-2.57,-4.25,-4.09,0,*68
1487862385.76,6078,11.13,72220.8,-2.57,-4.25,-4.01,0,*6F
1487862386.98,6079,11.13,72246.8,-2.59,-4.13,-4.13,0,*66
1487862388.2,6080,11.13,72236.5,-2.59,-4.25,-4.13,0,*65
1487862389.42,6081,11.13,72250.5,-2.59,-4.25,-4.25,0,*61
1487862390.64,6082,11.13,72234.3,-2.59,-4.17,-4.17,0,*62
1487862391.86,6083,11.13,72242.8,-2.59,-4.29,-4.21,0,*6B
1487862393.08,6084,11.13,72272.8,-2.59,-4.33,-4.25,0,*63
1487862394.29,6085,11.13,72272.8,-2.59,-4.45,-4.29,0,*6F
1487862395.48,6086,11.13,72276.3,-2.57,-4.41,-4.13,0,*6F
1487862396.66,6087,11.13,72296.0,-2.57,-4.37,-4.09,0,*64
1487862397.88,6088,11.13,72268.0,-2.59,-4.33,-4.13,0,*6A
1487862399.11,6089,11.13,72246.3,-2.59,-4.33,-4.25,0,*6E
1487862400.3,6090,11.13,72294.3,-2.57,-4.41,-4.37,0,*6E
1487862401.51,6091,11.13,72300.8,-2.59,-4.45,-4.57,0,*63
1487862402.74,6092,11.13,72302.5,-2.57,-4.73,-4.73,0,*6D
1487862404.0,6093,11.13,72308.8,-2.59,-4.93,-4.77,0,*68
1487862405.24,6094,11.13,72310.3,-2.57,-5.23,-4.85,0,*66
1487862406.49,6095,11.13,72292.8,-2.57,-5.81,-5.27,0,*66
1487862407.71,6096,11.13,72272.8,-2.57,-6.43,-5.07,0,*6A
1487862408.96,6097,11.13,72234.5,-2.59,-6.47,-5.03,0,*65
1487862410.2,6098,11.13,72248.8,-2.59,-6.39,-4.77,0,*61
1487862411.42,6099,11.13,72258.8,-2.57,-6.19,-4.53,0,*6A
1487862412.63,6100,11.13,72264.5,-2.57,-5.89,-4.41,0,*62
1487862413.82,6101,11.13,72254.0,-2.57,-5.51,-4.29,0,*68
1487862415.06,6102,11.13,72266.5,-2.57,-4.89,-4.01,0,*65
1487862416.27,6103,11.13,72250.0,-2.57,-4.41,-4.01,0,*60
1487862417.46,6104,11.13,72230.0,-2.57,-4.25,-3.95,0,*6F
1487862418.64,6105,11.13,72210.3,-2.57,-4.13,-3.87,0,*68
1487862419.86,6106,11.13,72230.5,-2.57,-4.01,-3.87,0,*68
1487862421.04,6107,11.13,72238.3,-2.57,-4.05,-3.87,0,*6D
1487862422.29,6108,11.13,72250.8,-2.59,-4.01,-3.87,0,*68
1487862423.48,6109,11.13,72246.3,-2.57,-3.95,-3.95,0,*6E
1487862424.71,6110,11.13,72258.8,-2.59,-3.91,-3.91,0,*68
1487862425.96,6111,11.13,72224.5,-2.59,-3.91,-4.01,0,*67
1487862427.15,6112,11.13,72222.0,-2.57,-3.95,-3.87,0,*67
1487862428.37,6113,11.13,72232.8,-2.57,-3.95,-4.01,0,*6F
1487862429.56,6114,11.13,72222.5,-2.57,-3.95,-3.95,0,*62
1487862430.78,6115,11.13,72228.3,-2.59,-3.91,-3.87,0,*6A
1487862432.02,6116,11.13,72210.5,-2.59,-4.05,-4.01,0,*6A
1487862433.21,6117,11.13,72204.0,-2.57,-4.13,-4.13,0,*61
1487862434.44,6118,11.13,72190.5,-2.59,-4.25,-4.25,0,*60
1487862435.63,6119,11.13,72194.8,-2.57,-4.21,-4.25,0,*6B
1487862436.84,6120,11.13,72196.3,-2.59,-4.17,-4.17,0,*6B
1487862438.07,6121,11.13,72158.8,-2.59,-4.25,-4.25,0,*6A
1487862439.28,6122,11.13,72128.0,-2.59,-4.25,-4.17,0,*68
1487862440.51,6123,11.13,72152.5,-2.59,-4.25,-4.25,0,*68
1487862441.73,6124,11.13,72186.3,-2.59,-4.33,-4.29,0,*64
1487862442.94,6125,11.13,72212.5,-2.59,-4.41,-4.33,0,*6B
1487862444.16,6126,11.13,72220.5,-2.59,-4.33,-4.41,0,*68
1487862445.38,6127,11.13,72214.3,-2.59,-4.45,-4.53,0,*6B
1487862446.6,6128,11.13,72240.5,-2.59,-4.57,-4.57,0,*63
1487862447.82,6129,11.13,72234.0,-2.59,-4.65,-4.57,0,*63
1487862449.06,6130,11.13,72226.3,-2.59,-4.69,-4.53,0,*63
1487862450.3,6131,11.13,72242.5,-2.59,-4.81,-4.65,0,*61
1487862451.53,6132,11.13,72252.5,-2.59,-4.93,-4.65,0,*61
1487862452.81,6133,11.13,72270.5,-2.59,-5.31,-4.81,0,*63
1487862454.05,6134,11.13,72248.5,-2.57,-5.27,-4.85,0,*69
1487862455.3,6135,11.13,72266.8,-2.59,-5.55,-4.89,0,*6F
1487862456.57,6136,11.13,72232.0,-2.59,-5.69,-4.93,0,*68
1487862457.81,6137,11.13,72228.0,-2.57,-5.77,-4.85,0,*6F
1487862459.07,6138,11.13,72222.0,-2.59,-5.73,-4.93,0,*6D
1487862460.35,6139,11.13,72240.5,-2.59,-5.85,-5.07,0,*69
1487862461.6,6140,11.13,72246.5,-2.59,-6.09,-5.03,0,*64
1487862462.84,6141,11.13,72244.5,-2.57,-6.23,-4.85,0,*6C
1487862464.09,6142,11.13,72248.8,-2.59,-6.09,-4.69,0,*6B
1487862465.32,6143,11.13,72250.3,-2.59,-5.73,-4.53,0,*6D
1487862466.57,6144,11.13,72260.0,-2.59,-5.61,-4.53,0,*69
1487862467.82,6145,11.13,72272.5,-2.59,-5.23,-4.53,0,*6E
1487862469.08,6146,11.13,72288.0,-2.59,-5.11,-4.69,0,*65
1487862470.33,6147,11.13,72288.0,-2.59,-5.19,-4.53,0,*65
1487862471.57,6148,11.13,72278.5,-2.59,-5.23,-4.41,0,*60
1487862472.82,6149,11.13,72282.3,-2.59,-5.19,-4.29,0,*66
1487862474.05,6150,11.13,72278.0,-2.59,-4.69,-4.05,0,*66
1487862475.27,6151,11.13,72276.8,-2.59,-4.25,-3.91,0,*65
1487862476.51,6152,11.13,72248.5,-2.59,-4.17,-4.01,0,*69
1487862477.71,6153,11.13,72274.8,-2.57,-3.95,-3.75,0,*6F
1487862478.93,6154,11.13,72282.8,-2.59,-3.87,-3.75,0,*65
1487862480.14,6155,11.13,72258.5,-2.57,-3.75,-3.71,0,*63
1487862481.34,6156,11.13,72270.8,-2.57,-3.83,-3.75,0,*6D
1487862482.53,6157,11.13,72248.0,-2.57,-3.87,-3.83,0,*61
1487862483.75,6158,11.13,72258.5,-2.59,-3.91,-3.79,0,*62
1487862485.0,6159,11.13,72268.8,-2.59,-4.01,-3.87,0,*6C
1487862486.19,6160,11.13,72254.5,-2.57,-3.95,-3.87,0,*62
1487862487.38,6161,11.13,72234.0,-2.57,-3.87,-3.87,0,*60
1487862488.56,6162,11.13,72234.0,-2.57,-3.87,-3.87,0,*63
1487862489.79,6163,11.13,72222.0,-2.59,-3.91,-3.87,0,*6B
1487862490.97,6164,11.13,72206.5,-2.57,-3.87,-3.87,0,*65
1487862492.16,6165,11.13,72202.8,-2.57,-3.95,-3.95,0,*64
1487862493.38,6166,11.13,72222.5,-2.57,-4.09,-4.01,0,*6F
1487862494.56,6167,11.13,72230.8,-2.57,-4.09,-3.95,0,*64
1487862495.75,6168,11.13,72232.8,-2.57,-3.95,-3.87,0,*6A
1487862496.94,6169,11.13,72208.8,-2.57,-3.95,-3.87,0,*6B
1487862498.16,6170,11.13,72198.8,-2.57,-4.01,-3.95,0,*6A
1487862499.38,6171,11.13,72210.0,-2.57,-4.01,-3.87,0,*68
1487862500.59,6172,11.13,72204.8,-2.57,-4.01,-3.95,0,*68
1487862501.83,6173,11.13,72220.3,-2.59,-4.05,-4.01,0,*69
1487862503.05,6174,11.13,72236.3,-2.57,-3.95,-4.01,0,*6E
1487862504.26,6175,11.13,72230.0,-2.57,-4.05,-4.01,0,*61
1487862505.54,6176,11.13,72236.5,-2.59,-4.01,-4.01,0,*68
1487862506.73,6177,11.13,72236.8,-2.57,-3.95,-3.87,0,*64
1487862507.92,6178,11.13,72256.0,-2.57,-3.87,-3.95,0,*6B
1487862509.1,6179,11.13,72258.3,-2.57,-3.87,-3.95,0,*6A
1487862510.29,6180,11.13,72260.0,-2.57,-3.95,-3.87,0,*6C
1487862511.49,6181,11.13,72256.5,-2.57,-3.95,-3.87,0,*6D